Weather History for Rheine Bentlage, Germany

Change the Weather History Date:

Wednesday, February 6, 2013

  Actual Average (EDDG) Record (EDDG)
Temperature  
Mean Temperature 36 °F -  
Max Temperature 41 °F 43 °F 57 °F (2004)
Min Temperature 30 °F 32 °F 10 °F (2012)
Degree Days  
Heating Degree Days 30    
Moisture  
Dew Point 31 °F    
Average Humidity 87    
Maximum Humidity 93    
Minimum Humidity 65    
Precipitation  
Precipitation 0.00 in - - ()
Sea Level Pressure  
Sea Level Pressure 29.51 in    
Wind  
Wind Speed 4 mph ()    
Max Wind Speed 8 mph    
Max Gust Speed -    
Visibility 5.9 miles    
Events Rain , Snow    
Averages and records for this station are not official NWS values.
T = Trace of Precipitation, MM = Missing Value Source: Averaged Metar Reports

Daily Weather History Graph

Daily Weather History Graph

Search for Another Location

Airport:

Trip Planner

Search our weather history database for the weather conditions in past years. The results will help you decide how hot, cold, wet, or windy it might be!

Date:

Astronomy

Feb. 06, 2013 Rise Set
Actual Time 8:02 AM CET 5:27 PM CET
Civil Twilight 7:26 AM CET 6:03 PM CET
Nautical Twilight 6:46 AM CET 6:43 PM CET
Astronomical Twilight 6:06 AM CET 7:23 PM CET
Moon 4:46 AM CET (2/6) 1:12 PM CET (2/6)
Length of Visible Light 10h 36m
Length of Day
9h 24m
Waning Crescent, 19% of the Moon is Illuminated
Feb 6
Waning Crescent
Feb 10
New
Feb 17
First Quarter
Feb 25
Full
Mar 4
Last Quarter

Hourly Weather History & Observations

Time (CET) Temp. Windchill Dew Point Humidity Pressure Visibility Wind Dir Wind Speed Gust Speed Precip Events Conditions
12:20 AM 33.8 °F 29.6 °F 30.2 °F 87% 29.42 in 6.2 mi South 4.6 mph - N/A   Mostly Cloudy
1:20 AM 32.0 °F 27.5 °F 30.2 °F 93% 29.39 in 6.2 mi SSE 4.6 mph - N/A   Partly Cloudy
2:20 AM 32.0 °F 28.7 °F 30.2 °F 93% 29.39 in 6.2 mi SE 3.5 mph - N/A   Scattered Clouds
3:20 AM 32.0 °F - 30.2 °F 93% 29.39 in 6.2 mi ESE 2.3 mph - N/A   Mostly Cloudy
4:20 AM 32.0 °F 28.7 °F 30.2 °F 93% 29.39 in 6.2 mi ESE 3.5 mph - N/A   Mostly Cloudy
5:20 AM 32.0 °F 28.7 °F 30.2 °F 93% 29.39 in 6.2 mi East 3.5 mph - N/A   Mostly Cloudy
6:20 AM 32.0 °F 26.4 °F 30.2 °F 93% 29.39 in 6.2 mi East 5.8 mph - N/A   Mostly Cloudy
7:20 AM 30.2 °F 25.4 °F 28.4 °F 93% 29.42 in 5.0 mi NE 4.6 mph - N/A   Scattered Clouds
8:20 AM 30.2 °F 26.7 °F 28.4 °F 93% 29.44 in 5.0 mi NE 3.5 mph - N/A   Scattered Clouds
9:20 AM 30.2 °F - 28.4 °F 93% 29.44 in 4.3 mi NNE 2.3 mph - N/A   Partly Cloudy
10:20 AM 33.8 °F 30.8 °F 30.2 °F 87% 29.47 in 5.0 mi North 3.5 mph - N/A   Partly Cloudy
12:20 PM 37.4 °F 32.1 °F 32.0 °F 81% 29.50 in 6.2 mi NNW 6.9 mph - N/A   Scattered Clouds
1:20 PM 41.0 °F 36.4 °F 30.2 °F 65% 29.50 in 6.2 mi NW 6.9 mph - N/A   Mostly Cloudy
2:20 PM 41.0 °F 36.4 °F 30.2 °F 65% 29.53 in 6.2 mi WNW 6.9 mph - N/A   Mostly Cloudy
3:20 PM 39.2 °F 34.2 °F 30.2 °F 70% 29.53 in 6.2 mi WNW 6.9 mph - N/A   Mostly Cloudy
4:20 PM 41.0 °F 36.4 °F 32.0 °F 70% 29.56 in 6.2 mi West 6.9 mph - N/A   Mostly Cloudy
5:20 PM 39.2 °F 37.0 °F 33.8 °F 81% 29.56 in 6.2 mi SW 3.5 mph - N/A   Mostly Cloudy
6:20 PM 37.4 °F 31.4 °F 33.8 °F 87% 29.59 in 6.2 mi West 8.1 mph - N/A   Mostly Cloudy
7:20 PM 35.6 °F 30.7 °F 33.8 °F 93% 29.59 in 6.2 mi WSW 5.8 mph - N/A   Mostly Cloudy
7:51 PM 37.4 °F 32.1 °F 33.8 °F 87% 29.59 in 6.2 mi WSW 6.9 mph - N/A Rain , Snow Light Rain Showers
8:10 PM 37.4 °F 33.8 °F 33.8 °F 87% 29.59 in 5.0 mi NW 4.6 mph - N/A Rain , Snow Light Rain Showers
8:20 PM 37.4 °F 32.8 °F 33.8 °F 87% 29.62 in 6.2 mi WNW 5.8 mph - N/A   Mostly Cloudy
9:20 PM 35.6 °F 29.2 °F 33.8 °F 93% 29.62 in 6.2 mi West 8.1 mph - N/A   Scattered Clouds
9:45 PM 35.6 °F 29.2 °F 33.8 °F 93% 29.62 in 6.2 mi West 8.1 mph - N/A   Scattered Clouds
10:20 PM 35.6 °F 29.2 °F 33.8 °F 93% 29.62 in 6.2 mi WSW 8.1 mph - N/A   Mostly Cloudy
11:20 PM 35.6 °F 29.9 °F 32.0 °F 87% 29.65 in 6.2 mi West 6.9 mph - N/A   Mostly Cloudy